Погода в Заводоуспенском

Россия / Свердловская область     56°51′41″N   65°01′10″E
темп.,
°C
ветер,
м/с
пор.,
м/с
влажн.,
%
обл.,
%
осадки,
мм/ч
давл.,
гПа
погр.,
м
19 сентября, вс
вс1923:00+2з412855 0.3 1004350
02:00+1з4108684 0.0 1005502
05:00+2з4989100 0.0 1005677
08:00+2зсз51095100 0.1 1006753
11:00+4зсз61081100 0.3 10061032
14:00+5зсз51176100 0.3 10081186
17:00+7зсз41158100 0.4 10091884
20:00+5ссз3674100 0.1 1010740
20 сентября, пн
пн2023:00+4зсз5117460 0.1 10121097
02:00+3зсз51082100 0.0 10131001
05:00+3сз5118499 0.1 1016905
08:00+3сз51081100 0.0 1017754
11:00+4сз5875100 0.1 1020915
14:00+5сз5771100 0.1 10221024
17:00+5ссз4874100 0.2 1023906
20:00+4сз3883100 0.1 1025697
21 сентября, вт
вт2123:00+2сз389480 0.1 1026280
02:00+1сз389899 0.0 1027341
05:00+2ссз3679100 0.0 1027711
08:00+2ссз357797 0.0 1028880
11:00+3ссз3463100 0.0 10281027
14:00+7ссз245266 0.0 10271181
17:00+7сз2453100 0.0 10261178
20:00+4сз0069100 0.0 102510
22 сентября, ср
ср2223:00+2ююз22775 0.0 102527
02:00+1юз237772 0.0 102452
05:000зсз23805 0.0 102452
08:00+2ссз258039 0.0 1024168
11:00+7с3557100 0.0 1024636
14:00+9ссз4564100 0.0 10241163
17:00+6ссз368286 0.0 1025530
20:00+4сз2590100 0.0 1027216
23 сентября, чт
чт2323:00+5ссз2584100 0.0 1027261
02:00+4ссв249270 0.0 1028156
05:00+3с149099 0.0 1030164
08:00+4ссв248944 0.0 1031196
11:00+7св235877 0.0 1032976
14:00+9ссв234666 0.0 10321486
17:00+9ссв22485 0.0 10321278
20:00+4с1166100 0.0 103310